This is the latest recevied weather packets stored in our database for station/object KN6WGU. If no packets are shown the sender has not sent any weather packets the latest 10 day(s).
| Time | Temp. | Humidity | Pressure | Rain* | Wind** | Luminosity | Snow |
|---|---|---|---|---|---|---|---|
| 1787473710 | 16.67° C | 94% | 1004.4 hPa | 0 mm | - | 0 W/m² | - |
| 1787473409 | 16.67° C | 94% | 1004.4 hPa | 0 mm | - | 0 W/m² | - |
| 1787473105 | 16.67° C | 93% | 1004.5 hPa | 0 mm | - | 0 W/m² | - |
| 1787472800 | 16.67° C | 93% | 1004 hPa | 0 mm | - | 0 W/m² | - |
| 1787472496 | 16.67° C | 92% | 1004 hPa | 0 mm | - | 0 W/m² | - |
| 1787472192 | 16.67° C | 91% | 1004.2 hPa | 0 mm | - | 0 W/m² | - |
| 1787471891 | 17.22° C | 91% | 1004.1 hPa | 0 mm | - | 0 W/m² | - |
| 1787471588 | 17.78° C | 90% | 1004.1 hPa | 0 mm | - | 0 W/m² | - |
| 1787471284 | 18.89° C | 90% | 1003.9 hPa | 0 mm | - | 0 W/m² | - |
| 1787470980 | 18.89° C | 88% | 1003.9 hPa | 0 mm | - | 0 W/m² | - |
| 1787470676 | 18.89° C | 89% | 1003.7 hPa | 0 mm | - | 0 W/m² | - |
| 1787470372 | 18.89° C | 90% | 1003.6 hPa | 0 mm | - | 0 W/m² | - |
| 1787470068 | 18.89° C | 91% | 1003.9 hPa | 1.78 mm | - | 0 W/m² | - |
| 1787469764 | 18.89° C | 89% | 1003.8 hPa | 4.83 mm | - | 0 W/m² | - |
| 1787469464 | 19.44° C | 86% | 1003.9 hPa | 4.32 mm | - | 0 W/m² | - |
| 1787469159 | 20.56° C | 81% | 1003.5 hPa | 0 mm | - | 0 W/m² | - |
| 1787468856 | 20.56° C | 79% | 1003.6 hPa | 0 mm | - | 0 W/m² | - |
| 1787468552 | 20° C | 78% | 1003.8 hPa | 0 mm | - | 0 W/m² | - |
| 1787468247 | 20° C | 78% | 1003.6 hPa | 0 mm | - | 0 W/m² | - |
| 1787467943 | 20.56° C | 77% | 1003.7 hPa | 0 mm | - | 0 W/m² | - |
| 1787467639 | 20.56° C | 77% | 1003.8 hPa | 0 mm | - | 0 W/m² | - |
| 1787467339 | 20° C | 78% | 1003.9 hPa | 0 mm | - | 0 W/m² | - |
| 1787467035 | 20° C | 77% | 1003.8 hPa | 0 mm | - | 0 W/m² | - |
| 1787466730 | 20° C | 76% | 1004.2 hPa | 0 mm | - | 0 W/m² | - |
| 1787466426 | 20° C | 74% | 1004 hPa | 0 mm | - | 0 W/m² | - |
* Rain latest hour (hover to see other rain measurements)
** Current wind speed in m/s (hover to see current wind gust speed)